Home   Weather   Warsaw   Past weeks
Flag for Poland

Past Weather in Warsaw, Poland — October 2016

Now
43 °F

Passing clouds.


Feels Like: 36 °F
Forecast: 43 / 37 °F
Wind: 12 mph from West

Location: Warsaw Okecie Airport

Current Time: Feb 23, 2020 at 6:54:18 am

Latest Report: Feb 23, 2020 at 6:00 am


Visibility: N/A

Pressure: 29.83 "Hg

Humidity: 76%

Dew Point: 36 °F

Location of WarsawLocation

October 2016 Weather in Warsaw — Graph

°F

High & Low Weather Summary for October 2016

 TemperatureHumidityPressure
High73 °F (Oct 2, 1:30 pm)100% (Oct 1, 6:00 am)30.51 "Hg (Oct 1, 6:00 am)
Low34 °F (Oct 7, 8:00 am)36% (Oct 4, 2:30 pm)29.86 "Hg (Oct 2, 12:00 am)
Average46 °F84%30.14 "Hg
* Reported Oct 1 12:00 am — Oct 31 11:30 pm, Warsaw. Weather by CustomWeather, © 2020

Note: Actual official high and low records may vary slightly from our data, if they occured in-between our weather recording intervals... More about our weather records

Warsaw Weather History for October 1, 2016

Scroll right to see more
 ConditionsComfort  
Time TempWeatherWind HumidityBarometerVisibility
12:00 am
Sat, Oct 1
61 °FClear.12 mph77%29.95 "Hg10 mi
12:30 am59 °FClear.6 mph82%29.95 "Hg10 mi
1:00 am57 °FClear.3 mph82%29.95 "Hg10 mi
1:30 am59 °FClear.3 mph82%29.95 "Hg10 mi
2:00 am57 °FPassing clouds.5 mph88%29.98 "HgN/A
2:30 am57 °FClear.2 mph88%29.98 "Hg10 mi
3:00 am57 °FClear.2 mph88%29.98 "Hg10 mi
3:30 am57 °FClear.2 mph88%29.95 "Hg10 mi
4:00 am57 °FLight rain. Clear.5 mph88%29.98 "HgN/A
4:30 am57 °FClear.1 mph88%29.98 "Hg10 mi
5:00 am55 °FClear.3 mph94%29.98 "Hg10 mi
5:30 am55 °FClear.2 mph94%29.98 "Hg10 mi
6:00 am54 °FFog.2 mph100%29.98 "HgN/A
6:30 am54 °FClear.2 mph94%29.98 "Hg10 mi
7:00 am54 °FFog.1 mph100%29.98 "HgN/A
7:30 am54 °FSunny.1 mph100%29.98 "Hg10 mi
8:00 am55 °FSunny.1 mph94%29.98 "Hg10 mi
8:30 am57 °FSunny.2 mph94%29.98 "Hg10 mi
9:00 am57 °FSunny.2 mph94%30.01 "Hg10 mi
9:30 am59 °FSunny.2 mph88%30.01 "Hg10 mi
10:00 am63 °FSunny.2 mph77%30.01 "Hg10 mi
10:30 am64 °FPassing clouds.3 mph78%30.01 "HgN/A
11:00 am64 °FPassing clouds.5 mph68%30.01 "HgN/A
11:30 am63 °FPassing clouds.5 mph73%30.01 "HgN/A
12:00 pm63 °FPassing clouds.5 mph68%29.98 "HgN/A
12:30 pm63 °FSunny.3 mph73%29.98 "Hg10 mi
1:00 pm63 °FSunny.2 mph73%29.98 "Hg10 mi
1:30 pm64 °FPassing clouds.3 mph68%29.98 "HgN/A
2:00 pm63 °FPassing clouds.5 mph77%30.01 "HgN/A
2:30 pm63 °FLight rain. Passing clouds.3 mph68%29.98 "HgN/A
3:00 pm61 °FLight rain. Clear.5 mph83%29.95 "HgN/A
3:30 pm63 °FSunny.6 mph77%29.95 "Hg10 mi
4:00 pm63 °FPassing clouds.5 mph77%29.95 "HgN/A
4:30 pm64 °FSunny.9 mph73%29.92 "Hg10 mi
5:00 pm64 °FSunny.7 mph73%29.92 "Hg10 mi
5:30 pm64 °FSunny.7 mph68%29.92 "Hg10 mi
6:00 pm63 °FSunny.6 mph73%29.92 "Hg10 mi
6:30 pm63 °FClear.6 mph73%29.92 "Hg10 mi
7:00 pm63 °FClear.7 mph73%29.92 "Hg10 mi
7:30 pm61 °FClear.8 mph77%29.92 "Hg10 mi
8:00 pm61 °FClear.8 mph77%29.92 "Hg10 mi
8:30 pm61 °FClear.8 mph77%29.92 "Hg10 mi
9:00 pm59 °FClear.8 mph82%29.92 "Hg10 mi
9:30 pm59 °FClear.8 mph82%29.89 "Hg10 mi
10:00 pm59 °FClear.8 mph82%29.89 "Hg10 mi
10:30 pm59 °FClear.9 mph82%29.89 "Hg10 mi
11:00 pm59 °FClear.9 mph88%29.89 "Hg10 mi
11:30 pm57 °FClear.9 mph88%29.89 "Hg10 mi
Weather by CustomWeather, © 2020

See weather overview

Advertising